Showing default

APSTAR 5 (TELSTAR 18), 28364

Orbit data source: Space-Track

APSTAR 5 (TELSTAR 18), 28364 is a payload satellite owned by SS/Loral (CN) in GEO that was launched on Tue, 29 Jun 2004 UTC via a ZENIT-3SL launch vehicle from the Sea Launch (SEAL). Payload-class satellites include a variety of spacecraft equipped with specific instruments for various scientific and technological missions. These include communications satellites like Starlink; space stations such as the ISS; scientific satellites like the Hubble; Earth observation satellites from companies like Planet Labs, Umbra, and HawkEye 360; GPS; miniature CubeSats for education and research; and military/defense satellites.

Not visible in the next 10 days
Identifier
28364, 2004-024A
Orbit
GEO
Country
Flag of CNCN / PRC
Related business
Manufacturer
SS/Loral
Mission
Non-operational Commercial Communications
Bus & Motor
SSL-1300, R-4D-11-164
Mass
4,845 kg wet, ~2,000 kg dry
Launch date (UTC)
2004-06-29 (21 years ago)
Launch vehicle
ZENIT-3SL
Launch site
Sea Launch (SEAL)
Object type
Payload
Rocket body
Debris
Shape & HBR
Box + 2 Pan, 15.5 m
Radar Cross Section
40.765 m², Large (>1 m²)

Expand to show TLE details & history
Last TLE update: 13 hours ago

TLE from 13 hours ago
0 APSTAR 5 (TELSTAR 18)
1 28364U 04024A   25312.56379081  .00000031  00000-0  00000+0 0  9998
2 28364   6.4108  72.3658 0002192 197.2148  19.8890  0.99012823 78117
Epoch: 2025-11-08T13:31Z
TLE epoch observation values (Epoch: 2025-11-08T13:31:51.525Z)
Latitude
-3.86895°
Longitude
38.33099°
Altitude
36,134.61 km
Speed
3.062 km/s
True Right ascension
19h 17m 08s
True Declination
-3° 51' 54"
Sunlit
Object was in daylight at epoch
Visualization orbit readout
Latitude
Unknown
Longitude
Unknown
Altitude
Unknown
Speed
Unknown
Apparent Right ascension
Unknown
Apparent Declination
Unknown
Sunlit
N/A
Visualization observer readout
Local Sidereal Time
22:39:37
Azimuth
Unknown
Elevation
Unknown
Doppler factor
Unknown
Orbital elements
Apogee altitude
36,153.625 km
Perigee altitude
36,134.984 km
Semi-major axis
42,522.442 km
Eccentricity
0.00022
Inclination
6.4108°
RAAN
72.3658°
Arg. of periapsis
197.2148°
True anomaly
19.89755°
Mean anomaly
19.889°
Eccentric anomaly
19.89327°
Mean motion
0.24752 °/min
Orbital period
1,454.41 mins
BSTAR
0
Loading maneuver chart data...
Computing Atmospheric mass density...
Loading historical data...
Loading historical data...
Loading historical data...
Loading historical data...
Loading historical data...
Loading historical data...
Loading historical data...
Other satellites on launch #24 in the year 2004 (2004-06-29 UTC)

Documentation

Showing up to 5 results
|